Location: Newark
(45.2500°N, 7.5833°E)
Time: 12:08:36
(UTC+00:00)

N. Korean satellite - Pass Details

Date: 19 December 2019
Orbit: 454 x 508 km, 97.2° (Epoch: 17 January)

Event Time Altitude Azimuth Distance (km) Brightness Sun altitude
Rises 16:28:17 0° 167° (SSE) 2,587 10.4 -6.8°
Reaches altitude 10° 16:30:22 10° 168° (SSE) 1,702 9.5 -7.2°
Maximum altitude 16:34:02 86° 258° (WSW) 503 6.7 -7.8°
Drops below altitude 10° 16:37:41 10° 347° (NNW) 1,690 9.2 -8.3°
Sets 16:39:45 0° 348° (NNW) 2,567 10.1 -8.7°
